Regional Weather Roundup
Issued by NWS

Home | Current Version | Previous Version | Graphics & Text | Print | Product List | Glossary On
Versions: 1 2 3 4 5 6 7 8 9 10 11 12 13 14 15 16 17 18 19 20 21 22 23 24 25 26 27 28 29 30 31 32 33 34 35 36 37 38 39 40 41 42 43 44 45 46 47 48 49 50
949
ASUS43 KFSD 261610
RWRSD

WEATHER ROUNDUP FOR SOUTH DAKOTA
NATIONAL WEATHER SERVICE SIOUX FALLS SD
1100 AM CDT MON JUN 26 2017

NOTE: "FAIR" INDICATES FEW OR NO CLOUDS BELOW 12,000 FEET WITH NO
SIGNIFICANT WEATHER AND/OR OBSTRUCTIONS TO VISIBILITY.


SDZ001>005-009-010-012>017-261700-
NORTHWEST AND NORTH CENTRAL SOUTH DAKOTA

CITY           SKY/WX    TMP DP  RH WIND       PRES   REMARKS
BUFFALO          N/A     71  42  35 S17G25    30.16F
FAITH            N/A     66  43  43 S9G17     30.25F
MOBRIDGE       SUNNY     65  41  41 VRB3      30.24F
$$

SDZ012>016-024>037-041>051-057-063-072>074-261700-
SOUTHWEST AND SOUTH CENTRAL SOUTH DAKOTA

CITY           SKY/WX    TMP DP  RH WIND       PRES   REMARKS
RAPID CTY ARPT SUNNY     69  39  33 SE12      30.24F
PIERRE         SUNNY     65  44  46 VRB6      30.25S
CUSTER         SUNNY     61  34  36 S6        30.31F
ELLSWORTH AFB  SUNNY     69  39  32 S16G22    30.23F
PHILIP         SUNNY     68  45  43 E9        30.24F
PINE RIDGE     SUNNY     70  42  36 SE9       30.25F
SPEARFISH      FAIR      68  41  37 NE7       30.23F
WINNER         FAIR      71  45  39 NE14      30.24F
$$

SDZ004>011-016>023-039-040-261700-
NORTHEAST SOUTH DAKOTA

CITY           SKY/WX    TMP DP  RH WIND       PRES   REMARKS
ABERDEEN       SUNNY     66  42  41 N9        30.27F
WATERTOWN      SUNNY     61  41  47 N13       30.25S
BROOKINGS      SUNNY     62  40  44 N7        30.25S
SISSETON         N/A     65  40  39 N8        30.25F
$$

SDZ017-020-022-023-036>040-048>070-261700-
SOUTHEAST SOUTH DAKOTA

CITY           SKY/WX    TMP DP  RH WIND       PRES   REMARKS
SIOUX FALLS    MOSUNNY   65  48  54 N7        30.23F
HURON          SUNNY     66  41  40 N7        30.25F
CHAMBERLAIN    SUNNY     69  43  39 N7        30.25S
MITCHELL       SUNNY     67  42  40 NE12      30.25F
YANKTON        SUNNY     66  50  56 NE10      30.22F
$$

ABBREVIATIONS USED IN REMARKS
   TC - TEMPERATURE IN CELSIUS
  WCI - WIND CHILL INDEX
   HX - HEAT INDEX
  VSB - VISIBILITY





USA.gov is the U.S. government's official web portal to all federal, state and local government web resources and services.